Location: Dumbr?vi?a
(45.8833°N, 22.7000°E)
Time: 17:14:06
(UTC+00:00)

USA 234 - Pass Details

Date: 03 March 2021
Orbit: 1102 x 1105 km, 123.0° (Epoch: 08 April)

Event Time Altitude Azimuth Distance (km) Brightness Sun altitude
Exits shadow 19:39:56 50° 5° (N) 1,386 3.8 -34.6°
Maximum altitude 19:40:56 54° 334° (NNW) 1,321 3.8 -34.8°
Drops below altitude 10° 19:47:14 10° 260° (W) 2,960 6.0 -35.7°
Sets 19:49:46 0° 256° (WSW) 3,916 6.7 -36.1°
